Location: Clarks Summit,Pa.
(41.5000°N, 75.6000°W)
Time: 21:09:24
(UTC-05:00)

OTV 5 (USA 277) - Visible Passes

Search period start: 18 February 2018 00:00
Search period end: 28 February 2018 00:00
Orbit: 404 x 417 km, 43.0° (Epoch: 07 September)

Date Brightness Start Highest point End Pass type
(mag) Time Alt. Az. Time Alt. Az. Time Alt. Az.
19 Feb ? 06:13:27 10° SSW 06:16:18 27° SSE 06:19:09 10° E visible
20 Feb ? 05:22:59 10° SSW 05:25:22 19° SSE 05:27:46 10° E visible
21 Feb ? 04:34:43 12° SE 04:34:43 12° SE 04:35:58 10° ESE visible
21 Feb ? 06:08:04 10° WSW 06:11:19 56° SSE 06:14:33 10° E visible
22 Feb ? 05:19:05 27° SSW 05:20:19 39° SSE 05:23:25 10° E visible
23 Feb ? 04:30:34 21° ESE 04:30:34 21° ESE 04:32:12 10° E visible
23 Feb ? 06:03:20 11° WSW 06:06:27 86° NNW 06:09:45 10° ENE visible
24 Feb ? 05:14:44 53° SW 05:15:23 76° SSE 05:18:40 10° ENE visible
25 Feb ? 04:26:04 24° E 04:26:04 24° E 04:27:35 10° E visible
25 Feb ? 05:58:49 13° W 06:01:40 66° N 06:04:58 10° E visible
26 Feb ? 05:10:07 59° WNW 05:10:34 73° N 05:13:52 10° ENE visible
27 Feb ? 04:21:23 23° ENE 04:21:23 23° ENE 04:22:48 10° ENE visible
27 Feb ? 05:54:08 13° WNW 05:56:56 67° N 06:00:13 10° E visible
